Lid_Strength_Index
3 3 2 2 2 2 2 2 2 2 1 1 2 2 2 2 2 5 10 7 5 2 2 6 8 9 10 10 8 9 13 15 14 13 12 10 12 10 10 11 11 8 9 7 7
3 3 3 3 3 2 2 2 2 2 2 2 2 2 2 2 4 9 6 4 3 3 7 9 10 11 13 11 10 12 15 13 12 13 13 11 12 12 12 12 12 11 9 7 7
3 2 2 3 3 3 3 3 2 2 2 2 2 2 2 3 7 10 5 4 4 3 7 9 9 11 13 12 12 12 14 12 12 11 12 12 12 12 13 13 12 13 12 9 10
4 4 3 3 2 2 2 3 3 3 3 3 3 2 2 5 13 9 4 2 2 5 8 10 11 13 14 14 12 14 12 12 10 11 12 13 12 13 13 12 11 12 12 12 10
3 3 3 3 3 3 3 3 2 2 3 3 3 3 6 10 12 9 5 6 7 8 10 10 11 12 14 13 13 14 13 12 12 12 13 12 14 14 14 12 12 11 11 12 12
2 2 2 3 3 3 3 3 3 3 4 3 3 3 8 14 9 9 9 8 8 9 10 10 11 11 13 13 14 13 13 14 13 13 13 14 15 15 14 13 12 12 13 13 12
2 2 2 2 2 2 3 3 3 4 4 4 4 6 10 13 10 10 9 9 9 9 10 9 9 11 12 14 12 13 16 15 15 14 15 15 17 16 14 13 13 13 13 13 12
2 2 2 2 1 2 2 2 2 4 4 4 5 8 13 9 11 10 10 10 9 9 9 9 9 11 13 12 13 16 17 19 16 15 15 17 18 15 14 14 14 13 13 12 12
1 2 1 2 2 1 1 1 2 4 4 4 8 11 13 7 10 9 10 10 9 9 9 9 10 13 14 16 18 17 20 18 17 16 16 17 18 15 14 14 14 14 14 13 13
1 1 1 1 1 2 2 2 3 6 5 7 9 13 12 12 10 10 10 10 10 11 11 11 13 16 16 18 21 18 20 18 19 16 16 17 17 14 14 14 14 14 14 14 14
2 1 1 1 1 1 3 7 9 10 10 12 12 12 11 10 9 10 9 10 10 12 16 13 16 18 16 16 16 17 18 19 17 15 17 17 17 15 14 15 15 15 14 14 14
2 2 1 1 1 2 5 11 12 12 14 11 11 11 10 10 13 11 10 13 13 16 15 16 19 16 14 15 16 17 19 19 16 15 17 17 17 14 14 14 15 14 15 14 13
3 2 2 2 2 5 10 10 8 10 15 12 11 11 11 11 13 13 12 13 15 16 16 18 16 14 15 17 17 18 18 19 19 17 16 18 18 15 14 14 14 14 14 14 14
4 3 2 2 5 7 9 7 8 10 16 13 14 12 11 12 14 11 11 13 14 17 17 17 16 16 18 17 16 19 17 17 18 21 24 18 23 18 15 15 15 14 15 14 14
4 4 3 2 6 8 7 8 9 10 20 14 15 11 12 14 14 14 12 14 17 16 17 18 18 19 18 17 16 18 16 18 18 20 25 22 25 19 15 16 15 15 14 15 14
4 3 2 4 5 7 8 9 10 15 20 16 14 15 15 14 14 14 14 13 14 16 17 17 16 16 17 16 16 15 17 18 19 22 27 23 22 19 17 16 15 14 14 14 13
4 3 3 4 6 6 7 9 16 18 14 17 17 15 16 16 16 15 16 17 17 20 20 18 18 16 15 17 16 16 19 24 23 24 25 20 24 19 16 15 15 14 14 14 13
5 3 3 4 5 6 7 12 19 20 14 14 15 15 16 16 17 16 17 18 16 17 20 20 21 17 15 17 18 18 19 21 27 24 23 21 24 17 15 15 15 14 14 14 14
5 5 5 4 4 6 9 20 20 17 12 16 15 17 17 17 17 17 17 18 16 16 19 19 19 16 15 16 16 18 20 18 25 30 26 23 19 15 15 15 15 14 14 14 14
8 7 7 4 4 6 12 16 17 10 10 12 15 15 17 18 18 18 18 16 16 15 15 17 20 17 16 15 15 17 16 20 20 26 28 23 21 19 17 16 15 15 15 15 15
7 9 6 3 4 7 13 15 14 9 8 11 13 14 13 16 15 18 17 14 14 15 15 16 18 19 17 18 18 19 19 18 17 19 24 25 21 16 16 15 14 14 13 14 13
7 12 4 3 9 11 12 12 9 9 7 9 11 11 12 12 15 15 15 12 11 13 16 14 17 21 18 17 16 16 17 18 21 22 21 21 22 14 14 13 12 11 12 12 12
9 10 5 5 12 12 11 11 9 11 9 9 10 10 10 12 16 14 15 12 11 12 13 13 19 24 20 17 16 17 16 15 17 18 22 22 20 13 13 12 10 13 12 12 12
9 13 10 8 9 11 12 12 13 9 9 8 9 9 12 13 12 16 15 11 11 14 9 10 15 18 20 17 15 17 16 15 17 23 20 18 17 13 11 12 12 11 12 13 12
11 13 13 20 12 11 10 12 15 14 9 8 11 11 12 15 13 16 14 12 11 10 11 13 20 17 17 14 14 14 14 16 17 16 19 15 16 13 11 12 11 12 12 12 12
12 14 14 15 13 13 11 13 13 12 12 13 12 11 10 13 12 15 12 12 12 12 13 13 15 19 21 18 14 15 14 14 15 15 15 14 15 10 10 11 12 13 14 13 13
7 9 10 13 15 14 13 13 13 11 11 9 10 11 13 11 9 9 9 9 11 13 15 16 19 22 24 20 22 20 17 15 14 13 13 15 12 10 11 12 12 15 14 13 13